298  
ASUS43 KFGF 231610  
RWRFGF  
PRAIRIE TO PINES WEATHER ROUNDUP  
NATIONAL WEATHER SERVICE EASTERN NORTH DAKOTA/GRAND FORKS ND  
1100 AM CDT SAT JUN 23 2018  
 
**SATELLITE DATA USED TO AUGMENT SKY COVER AT AUTOMATED STATIONS**  
***** WEATHER ACROSS EASTERN NORTH DAKOTA *****  
 
CITY SKY/WX TMP DP RH WIND PRES REMARKS
 
GRAND FORKS FAIR 79 65 62 VRB7 29.70R  
GRAND FRKS AFB FAIR 78 64 62 SE8 29.71S  
DEVILS LAKE NOT AVBL  
FARGO FAIR 77 61 57 S8 29.72S  
WAHPETON ARPT PTSUNNY 73 61 64 SE5 29.75S  

 
 
***** WEATHER ACROSS CENTRAL AND WESTERN NORTH DAKOTA *****  
 
CITY SKY/WX TMP DP RH WIND PRES REMARKS
 
BISMARCK PTSUNNY 71 60 68 W3 29.72S  
MINOT FAIR 76 59 55 W6 29.71S  
JAMESTOWN FAIR 77 61 57 S13G18 29.72R  
MINOT AFB FAIR 73 61 65 CALM 29.70R  
GARRISON N/A 68 61 78 W6 29.71S  
WILLISTON FAIR 76 55 48 VRB7 29.70F  
DICKINSON FAIR 65 59 81 CALM 29.72S  
HETTINGER FAIR 66 59 78 CALM 29.74F  

 
 
***** OTHER AIRPORT OBSERVATIONS IN OUR AREA *****  
 
CITY SKY/WX TMP DP RH WIND PRES REMARKS
 
WALHALLA FAIR 75 64 69 E8 29.72S  
GRAFTON AIRPOR NOT AVBL  
VALLEY CITY AR NOT AVBL  
CANDO FAIR 75 63 64 VRB3 29.73S  
CAVALIER APRT FAIR 77 63 61 E8 29.71S  
GWINNER N/A 75 61 60 VRB7 29.73S  
SHEYENNE NWR N/A 79 62 56 SW7 29.95S  
ROLLA PTSUNNY 70 63 78 NE3 29.75R  
***** THE ABOVE OBSERVATIONS ARE NON NWS ARE NOT QUALITY  
CONTROLLED AND MAY MIS-REPORT RAIN FOR SNOW...  

 
 
***** WEATHER ACROSS NORTHERN MINNESOTA *****  
 
CITY SKY/WX TMP DP RH WIND PRES REMARKS
 
FLAG ISLAND FAIR 72 61 68 NE7 29.76S  
WARROAD FAIR 73 66 78 E7 29.77F  
ROSEAU FAIR 77 66 69 NE6 29.75F  
HALLOCK FAIR 79 63 57 E9 29.71F  
THF RVR FALLS NOT AVBL  
BAUDETTE FAIR 75 65 70 N9 29.77R  
WASKISH FAIR 77 64 65 CALM 29.76R  
CROOKSTON FAIR 75 64 69 SE8 29.73R  
STEPHEN NDAWN N/A 79 63 57 SE9 N/A  
GREENBUSH NDAW N/A 77 64 65 E7 N/A  

 
***** WEATHER ACROSS CENTRAL AND WEST MINNESOTA *****  
 
CITY SKY/WX TMP DP RH WIND PRES REMARKS
 
FOSSTON FAIR 75 61 60 SE7 29.75F  
BEMIDJI FAIR 77 59 53 SE6 29.76F  
PARK RAPIDS FAIR 76 62 62 W6 29.77S  
ELBOW LAKE CLOUDY 76 63 63 S7 29.77R  
WADENA PTSUNNY 75 61 60 W3 29.77R  
DETROIT LAKES FAIR 73 61 64 SE3 29.78R  
MOORHEAD FAIR 75 61 60 S5 29.74S  
FERGUS FALLS PTSUNNY 72 63 73 S6 29.77R  
MORRIS MN FAIR 75 63 64 S9 29.76R  
STAPLES FAIR 75 61 60 CALM 29.77S  

 
***** WEATHER ELSEWHERE ACROSS MINNESOTA *****  
 
CITY SKY/WX TMP DP RH WIND PRES REMARKS
 
DULUTH FAIR 77 58 51 NW5 29.79S  
INTRNTL FALLS FAIR 75 65 70 NE8 29.79R  
ELY FAIR 75 54 46 W3 29.78S  
CLOQUET FAIR 73 59 60 CALM 29.79S  
WHEATON FAIR 75 59 57 S8 29.76S  
BRAINERD PTSUNNY 76 60 57 VRB6 29.77F  
HIBBING FAIR 75 56 51 VRB5 29.78S  
ALEXANDRIA PTSUNNY 76 62 62 SW6 29.79S  
SAINT CLOUD PTSUNNY 78 58 49 S9 29.78S  
MINNEAPOLIS PTSUNNY 77 62 59 W7 29.78S  

 
 
***** WEATHER ACROSS SOUTH DAKOTA *****  
 
CITY SKY/WX TMP DP RH WIND PRES REMARKS
 
SIOUX FALLS PTSUNNY 70 61 73 S9 29.77S  
BROOKINGS NOT AVBL  
WATERTOWN FAIR 73 60 63 S13 29.75F  
HURON FAIR 73 61 65 SE15G23 29.71S  
SISSETON N/A 77 60 55 S13 29.73S  
ABERDEEN PTSUNNY 74 60 61 S13G23 29.72S  
MITCHELL CLOUDY 72 63 73 S14 29.73S  
PIERRE PTSUNNY 72 59 63 W10 29.69R  
MOBRIDGE CLOUDY 69 63 81 CALM 29.69S  
RAPID CITY FAIR 73 57 57 N10 29.79S  

 
 
***** SOME WEATHER IN NEARBY STATES *****  
 
CITY SKY/WX TMP DP RH WIND PRES REMARKS
 
GLASGOW MT FAIR 70 58 65 NW10 29.73S  
GREAT FALLS MT FAIR 68 45 43 W18G25 29.86S  
CHEYENNE WY FAIR 72 41 32 W7 30.00F  
SCOTTSBLUFF NE FAIR 72 59 63 W5 29.89F  
OMAHA NE CLOUDY 71 62 73 S10 29.81S  
DES MOINES IA CLOUDY 73 63 70 W5 29.81R  
DAVENPORT IA FAIR 75 61 61 NE5 29.79F  
CHICAGO IL PTSUNNY 71 57 61 SE3 29.75F  
EAU CLAIRE WI FAIR 76 61 59 CALM 29.77S  
LA CROSSE WI FAIR 78 61 55 N5 29.77S  

 
 
***** SOME NATIONAL WEATHER *****  
 
CITY SKY/WX TMP DP RH WIND PRES REMARKS
 
LA GUARDIA NY DRIZZLE 64 58 80 NE16 29.87F  
RALEIGH NC PTSUNNY 88 74 63 SW14G24 29.87S HX 96  
ATLANTA GA PTSUNNY 82 72 71 W10 29.97S  
NEW ORLEANS LA PTSUNNY 90 76 63 SW12 29.97S HX 101  
OKLAHOMA CITY PTSUNNY 73 65 75 NW3 29.86F  
ALBUQUERQUE NM FAIR 81 21 11 VRB3 30.02F  
SALT LAKE CITY FAIR 80 38 22 VRB6 29.92F  
LOS ANGELES CA CLOUDY 64 60 87 SE9 29.85R  
BOISE ID FAIR 66 45 46 NW15 30.01R  
SEATTLE WA CLOUDY 58 52 80 NE5 30.18R  

 
 
*** WEATHER ACROSS MANITOBA...SASKATCHEWAN AND ONTARIO ***  
***ONTARIO***  
 
CITY SKY/WX TMP DP RH WIND PRES REMARKS
 
GERALDTON CLOUDY 57 45 62 NE12 29.87R  
THUNDER BAY CLOUDY 59 50 72 E7 29.80R  
SIOUX LOOKOUT CLOUDY 70 64 83 W5 29.81R  
TORONTO CLOUDY 63 61 94 E6 29.76S  
BIG TROUT LK SUNNY 63 41 45 E9G17 30.00S  
PICKLE LAKE CLOUDY 55 54 94 E14G21 29.89R  
DRYDEN PTSUNNY 64 61 88 N6 29.82R  
KENORA PTSUNNY 66 63 88 E7 29.79S  

 
*** MANITOBA***  
 
CITY SKY/WX TMP DP RH WIND PRES REMARKS
 
BRANDON PTSUNNY 70 59 68 E12 29.75R  
DAUPHIN SUNNY 77 64 65 NE12 29.72S  
ISLAND LAKE PTSUNNY 63 48 59 E15G24 29.95R  
PILOT MOUND NOT AVBL  
THE PAS CLOUDY 61 55 82 NE6 29.84R  
THOMPSON MOSUNNY 66 39 37 E9G20 29.97F  
WINNIPEG PTSUNNY 73 63 68 SE15G22 29.73F  
LYNN LAKE MOSUNNY 64 43 45 E12G17 29.97S  
CHURCHILL PTSUNNY 59 36 41 SW7 30.06S  
GILLAM SUNNY 64 32 29 E6 30.04S  

 
***SASKATCHEWAN***  
 
CITY SKY/WX TMP DP RH WIND PRES REMARKS
 
ESTEVAN PTSUNNY 73 61 64 SE2 29.70S  
KINDERSLEY MOSUNNY 72 59 64 NE8 29.75F  
LLOYDMINSTER PTSUNNY 66 61 82 E7 29.80R  
PRINCE ALBERT CLOUDY 66 61 82 E13 29.81S  
REGINA PTSUNNY 70 61 73 NE10 29.71R  
YORKTON PTSUNNY 72 64 78 NE13G18 29.72S  
N. BATTLEFORD RAIN 66 61 82 NE6 29.80R  
LA RONGE PTSUNNY 66 57 72 E10 29.87R  
SASKATOON PTSUNNY 70 63 78 NE14 29.77R  
SWIFT CURRENT SUNNY 70 59 68 N10 29.73S  

 
NOTE: THESE ARE AUTOMATED STATIONS WITH LIMITED QUALITY CONTROL  
"FAIR" INDICATES FEW OR NO CLOUDS BELOW 12,000 FEET WITH NO  
SIGNIFICANT WEATHER AND/OR S TO VISIBILITY
.  
SKY/WX - SKY CONDITION AND SIGNIFICANT WEATHER.  
TMP - AIR TEMPERATURE. DP - DEWPOINT TEMPERATURE.  
RH - RELATIVE HUMIDITY. PRES - PRESSURE.  
HX - HEAT INDEX. WCI - WIND CHILL INDEX.  
$  
 
 
CLICK HERE TO GO TO PREVIOUS BULLETINS.

The Nexlab ND Page
The Nexlab MN Page Main Text Page